Overview Statistics Trail Chart Weather Telemetry Raw packets
 

This is the latest recevied weather packets stored in our database for station/object W1MDM-10. If no packets are shown the sender has not sent any weather packets the latest 10 day(s).

<< 67 68 69 70 71 72 73 >>
Time Temp. Humidity Pressure Rain* Wind** Luminosity Snow
1787865047 41.11° C 39% 1010.7 hPa 0 mm - - -
1787864747 40.56° C 40% 1010.6 hPa 0 mm - - -
1787864447 40.56° C 40% 1010.7 hPa 0 mm - - -
1787864147 40.56° C 40% 1010.8 hPa 0 mm - - -
1787863847 40.56° C 40% 1010.6 hPa 0 mm - - -
1787863547 40° C 42% 1011 hPa 0 mm - - -
1787863247 39.44° C 43% 1011 hPa 0 mm - - -
1787862947 38.89° C 43% 1011.1 hPa 0 mm - - -
1787862647 40° C 42% 1011 hPa 0 mm - - -
1787862349 40° C 41% 1011.2 hPa 0 mm - - -
1787862047 40° C 42% 1011.4 hPa 0 mm - - -
1787861747 39.44° C 43% 1011.5 hPa 0 mm - - -
1787861447 39.44° C 43% 1011.9 hPa 0 mm - - -
1787861147 38.89° C 43% 1011.9 hPa 0 mm - - -
1787860847 38.33° C 45% 1012.1 hPa 0 mm - - -
1787860547 37.78° C 47% 1012.2 hPa 0 mm - - -
1787860247 37.78° C 46% 1012.3 hPa 0 mm - - -
1787859947 37.78° C 46% 1012.3 hPa 0 mm - - -
1787859647 37.78° C 46% 1012.6 hPa 0 mm - - -
1787859347 38.33° C 45% 1012.6 hPa 0 mm - - -
1787859047 37.78° C 46% 1012.7 hPa 0 mm - - -
1787858747 37.22° C 47% 1012.8 hPa 0 mm - - -
1787858447 37.78° C 46% 1012.8 hPa 0 mm - - -
1787858147 37.78° C 46% 1012.9 hPa 0 mm - - -
1787857847 38.33° C 45% 1013 hPa 0 mm - - -

* Rain latest hour (hover to see other rain measurements)
** Current wind speed in m/s (hover to see current wind gust speed)